Date,TemperatureHighF,TemperatureAvgF,TemperatureLowF,DewpointHighF,DewpointAvgF,DewpointLowF,HumidityHigh,HumidityAvg,HumidityLow,PressureMaxIn,PressureMinIn,WindSpeedMaxMPH,WindSpeedAvgMPH,GustSpeedMaxMPH,PrecipitationSumIn
2013-2-3,64.2,61.7,59.7,56.5,55.5,54.3,88,81,71,29.90,29.74,26,13,43,0.00
2013-2-4,66.0,61.3,58.4,57.8,55.2,52.4,90,81,65,29.95,29.88,10,3,20,0.00
2013-2-5,59.1,57.1,54.9,51.5,48.4,47.4,76,73,69,29.85,29.82,4,1,9,0.00
2013-2-6,60.2,56.5,51.9,53.7,49.7,46.3,86,78,65,29.82,29.64,10,2,14,0.00
2013-2-7,60.5,58.2,53.3,53.5,50.3,47.1,85,75,65,29.68,29.50,29,12,42,0.06
2013-2-8,57.0,55.3,51.8,46.9,43.7,41.4,78,65,59,29.72,29.51,17,4,24,0.00
2013-2-9,59.2,55.2,50.0,45.5,42.6,40.7,73,63,54,29.85,29.72,8,3,16,0.00
2013-2-10,57.7,54.6,51.5,43.2,41.6,40.6,69,62,54,29.85,29.77,6,1,13,0.00
2013-2-11,54.6,52.5,50.1,37.3,36.0,34.4,58,54,47,30.02,29.89,11,4,21,0.00
2013-2-12,58.6,54.0,47.9,49.8,43.5,35.2,75,68,56,30.03,29.97,15,6,21,0.00
2013-2-13,58.8,55.4,48.8,51.5,48.2,46.0,91,77,67,29.97,29.86,17,7,36,0.04
2013-2-14,57.1,51.2,48.6,49.2,46.5,44.7,90,84,71,29.88,29.67,12,2,26,0.00
2013-2-15,54.0,50.3,47.3,46.9,44.4,43.3,88,80,71,30.00,29.66,13,2,22,0.00
2013-2-16,57.5,52.3,48.2,47.0,45.2,42.6,87,77,62,30.03,29.97,11,2,17,0.00
2013-2-17,49.8,48.0,46.0,46.5,42.4,39.8,90,81,74,30.04,29.92,16,4,20,0.00
2013-2-18,54.8,49.4,43.7,42.2,40.1,38.5,83,71,56,30.06,30.01,7,1,11,0.00
2013-2-19,58.7,53.3,49.0,51.4,45.8,40.9,89,76,65,30.02,29.74,9,3,20,0.00
2013-2-20,57.8,53.3,48.4,44.8,40.0,33.9,74,61,43,30.03,29.80,13,3,20,0.00
2013-2-21,56.8,54.5,51.8,51.0,44.6,41.5,83,69,63,30.02,29.70,11,3,21,0.00
2013-2-22,60.2,55.0,49.0,53.5,50.4,46.5,92,85,68,29.70,29.55,16,4,30,0.00
2013-2-23,62.0,56.6,50.9,54.3,51.0,48.6,92,82,67,30.00,29.71,8,1,13,0.00
2013-2-24,65.6,60.4,53.1,56.9,52.7,49.0,90,77,61,30.06,29.98,23,6,27,0.00
2013-2-25,66.5,62.6,59.7,56.3,53.6,51.5,86,73,62,30.05,29.95,17,8,27,0.00
2013-2-26,63.3,59.8,55.4,56.4,51.8,44.1,89,76,61,30.01,29.93,15,4,23,0.00
2013-2-27,58.1,55.0,53.3,46.2,43.8,42.0,76,66,55,30.02,29.92,14,3,23,0.05
2013-3-3,56.5,53.9,50.4,45.1,40.9,38.8,71,62,55,29.94,29.77,26,8,33,0.02
2013-3-4,59.0,53.3,47.2,45.5,41.9,38.1,75,66,52,30.14,29.94,7,1,12,0.00
2013-3-5,56.9,52.9,49.6,45.0,40.0,35.4,79,62,51,30.38,30.14,12,4,19,0.00
2013-3-6,55.8,52.0,46.2,43.4,38.1,34.9,71,60,49,30.36,30.12,8,1,12,0.00
2013-3-7,58.5,55.1,53.2,52.3,48.4,43.5,88,79,67,30.13,29.90,6,1,10,0.01
2013-3-8,59.5,56.4,53.2,53.9,52.3,50.6,92,86,79,29.90,29.82,5,1,10,0.00
2013-3-9,66.3,59.9,54.6,57.4,54.1,51.6,93,82,68,29.83,29.70,8,1,17,0.00
2013-3-10,66.8,61.4,58.8,56.5,52.9,50.1,86,74,65,29.80,29.70,9,2,17,0.00
2013-3-11,65.3,61.3,57.3,58.6,55.1,48.4,87,80,60,29.70,29.56,10,2,23,0.00
2013-3-12,67.3,61.9,58.6,53.9,48.1,45.2,73,61,45,29.69,29.56,11,4,20,0.00
2013-3-13,63.7,60.2,54.3,56.7,51.0,46.0,88,72,62,29.72,29.66,17,6,24,0.00
2013-3-14,66.9,63.0,59.3,56.7,52.9,45.4,88,70,55,29.68,29.27,30,11,39,0.00
2013-3-15,60.2,57.3,53.5,46.9,44.8,42.1,69,63,57,29.58,29.36,17,6,24,0.00
2013-3-16,56.6,52.9,49.6,42.6,39.1,36.0,73,60,49,29.97,29.58,19,5,25,0.00
2013-3-17,54.6,49.7,46.5,38.5,37.3,35.8,70,63,51,30.10,29.97,6,2,12,0.00
2013-3-18,55.8,54.8,53.8,49.9,48.8,47.9,84,80,76,30.00,29.93,9,6,17,0.01
2013-3-19,62.2,59.3,56.4,55.6,52.3,48.9,84,78,73,29.93,29.75,16,8,25,0.00
2013-3-20,65.5,60.9,54.7,56.2,52.5,49.2,87,75,57,29.88,29.79,12,3,19,0.00
2013-3-21,67.0,64.3,61.4,57.1,53.6,46.7,84,69,58,29.77,29.51,18,8,28,0.00
2013-3-22,62.7,58.6,55.2,45.4,41.1,36.8,69,53,41,29.73,29.53,25,11,37,0.00
2013-3-23,62.1,57.1,52.1,44.6,35.6,20.3,66,46,23,29.94,29.74,9,3,17,0.00
2013-3-24,63.4,58.6,52.6,54.5,49.5,43.9,82,72,65,29.98,29.90,13,4,24,0.00
2013-3-25,64.9,61.2,57.4,56.7,53.5,49.4,88,76,65,29.91,29.59,22,8,33,0.00
2013-3-26,65.6,61.1,56.5,56.7,52.0,49.0,89,73,57,29.63,29.50,14,5,23,0.01
2013-3-27,65.1,61.4,56.1,56.0,51.0,46.9,76,69,63,29.79,29.63,9,2,19,0.00
2013-3-28,62.8,60.3,57.6,56.1,52.7,48.8,85,76,64,30.03,29.80,10,2,14,0.01
2013-3-29,62.2,59.5,55.9,56.3,54.1,51.7,88,83,71,30.03,29.96,6,1,8,0.00
2013-3-30,70.9,64.0,58.1,58.5,54.7,51.4,87,73,53,29.96,29.79,14,2,25,0.00
2013-3-31,67.2,64.1,61.7,59.0,55.7,51.5,84,74,63,29.82,29.69,15,5,19,0.00
2013-4-1,71.1,63.7,58.1,57.3,50.3,42.7,88,64,37,29.86,29.73,11,3,19,0.00
2013-4-2,68.4,64.5,58.9,57.2,51.2,47.4,78,63,50,29.85,29.54,17,6,26,0.00
2013-4-3,68.0,63.9,60.0,58.5,51.6,45.7,88,65,46,29.64,29.43,14,6,26,0.00
2013-4-4,69.3,62.9,58.1,51.8,48.7,44.8,73,61,43,29.89,29.65,21,6,25,0.00
2013-4-5,67.6,63.1,58.7,55.4,50.6,45.4,76,64,45,29.92,29.76,18,6,29,0.00
2013-4-6,71.7,65.1,59.6,57.5,52.8,48.6,73,65,44,29.78,29.69,9,2,23,0.00
2013-4-7,69.5,66.2,62.4,59.1,53.0,47.7,88,63,49,29.66,29.28,16,6,32,0.01
2013-4-8,62.7,60.6,58.5,54.9,50.7,47.7,83,70,61,29.84,29.37,11,4,20,0.00
2013-4-9,63.5,60.3,56.3,53.4,50.8,47.7,78,71,59,29.96,29.85,9,3,14,0.00
2013-4-10,64.5,61.4,57.2,55.5,52.2,49.8,80,72,66,29.96,29.88,10,3,15,0.00
2013-4-11,68.7,63.0,57.4,57.5,52.2,48.4,79,68,53,29.99,29.88,11,2,17,0.00
2013-4-12,67.6,62.8,57.8,57.8,52.2,46.2,79,69,51,30.03,29.95,11,3,20,0.00
2013-4-13,68.7,64.6,60.2,57.9,52.2,48.1,73,64,53,30.07,30.02,10,2,15,0.00
2013-4-14,76.8,67.3,62.7,56.9,51.8,47.1,73,59,36,30.06,30.00,12,3,27,0.00
2013-4-15,65.2,61.3,58.3,47.9,44.7,39.3,65,55,41,30.06,29.96,19,6,27,0.00
2013-4-16,58.0,56.3,55.6,47.4,46.3,45.4,74,69,63,30.03,30.00,10,4,24,0.01
2013-5-7,69.0,69.0,69.0,61.4,61.4,61.4,77,77,77,29.87,29.87,5,5,7,0.00
2013-5-8,75.2,69.7,67.7,61.6,59.3,56.6,79,70,60,29.87,29.77,14,2,20,0.00
2013-5-9,70.6,67.7,65.7,61.3,56.8,54.1,77,68,60,29.85,29.79,11,3,23,0.00
2013-5-10,73.3,67.7,61.5,58.2,56.0,52.3,87,67,52,29.86,29.80,17,3,19,0.01
2013-5-11,72.4,67.5,62.8,61.6,57.9,54.5,78,72,62,29.85,29.72,11,3,19,0.00
2013-5-16,72.4,68.7,64.7,64.3,59.3,54.5,85,73,57,29.88,29.81,13,3,20,0.00
2013-5-17,79.6,71.2,66.0,64.2,60.9,55.0,86,71,45,29.89,29.79,13,3,21,0.00
2013-5-18,76.6,72.3,67.3,66.3,62.6,59.7,80,72,59,29.96,29.86,7,1,12,0.00
2013-5-19,80.7,75.8,71.0,68.0,62.5,54.7,80,64,41,29.94,29.86,9,2,18,0.00
2013-5-20,81.2,76.3,71.3,69.8,64.5,59.8,81,67,55,29.89,29.83,7,1,12,0.00
2013-5-21,80.9,76.2,72.3,66.8,61.6,55.4,77,61,49,29.90,29.82,12,2,17,0.00
2013-5-22,82.7,74.8,70.1,68.4,61.6,50.6,84,65,33,29.87,29.68,14,4,26,0.00
2013-5-23,80.2,76.0,71.4,65.6,59.8,52.3,76,58,43,29.68,29.54,17,7,28,0.00
2013-5-24,77.2,72.1,69.1,62.0,55.2,52.2,64,56,47,29.87,29.67,10,4,18,0.00
2013-5-25,73.7,70.9,67.0,61.9,57.1,52.2,70,62,49,29.92,29.85,14,6,21,0.00
2013-5-26,79.7,73.0,67.0,63.8,56.4,48.8,67,57,34,29.92,29.81,10,3,22,0.00
2013-5-27,73.9,70.3,66.5,57.0,50.7,44.2,63,50,40,29.94,29.86,12,4,22,0.00
2013-5-28,72.7,69.4,64.4,62.9,58.8,52.3,78,69,52,29.92,29.73,9,2,17,0.00
2013-5-29,80.2,74.6,68.4,65.3,60.2,49.8,80,62,44,29.72,29.54,13,3,22,0.00
2013-5-30,80.2,74.4,71.1,66.1,60.6,55.1,79,63,47,29.70,29.62,10,3,20,0.00
2013-5-31,79.1,74.6,70.1,63.2,53.6,47.0,77,49,33,29.75,29.64,19,6,29,0.00
2013-6-1,70.7,68.3,65.8,60.4,53.4,44.7,80,60,45,29.83,29.75,15,4,22,0.02
2013-6-2,74.2,69.2,64.0,59.5,56.4,50.8,82,64,45,29.80,29.65,14,3,25,0.00
2013-6-3,74.4,70.1,65.4,62.7,56.5,53.2,74,62,54,29.84,29.79,12,3,22,0.00
2013-6-4,75.0,71.9,67.5,64.8,59.4,53.3,76,65,50,29.85,29.78,14,4,18,0.00
2013-6-5,76.8,72.3,68.1,61.9,57.6,53.2,71,60,46,29.92,29.84,12,3,20,0.00
2013-6-6,77.6,72.3,67.4,66.0,61.3,56.5,80,69,54,29.97,29.89,11,3,19,0.00
2013-6-7,74.3,71.6,70.3,64.3,61.0,56.9,80,70,58,29.96,29.89,6,1,9,0.00
2013-7-1,83.2,78.3,75.5,65.7,58.8,50.1,71,54,33,29.96,29.89,8,4,18,0.00
2013-7-2,82.4,77.6,72.9,66.7,62.8,54.9,75,61,43,29.97,29.90,9,2,16,0.00
2013-7-3,85.0,79.6,74.3,66.6,59.2,53.5,74,51,38,29.92,29.83,13,3,21,0.00
2013-7-4,85.9,81.0,75.8,69.2,57.0,49.9,64,45,33,29.87,29.79,13,4,22,0.00
2013-7-5,86.7,81.7,76.0,62.0,55.1,49.6,46,40,32,29.86,29.79,14,4,21,0.00
2013-7-6,85.9,81.8,76.9,64.8,60.0,56.9,63,48,39,29.85,29.78,18,5,23,0.00
2013-7-7,88.2,83.7,78.7,63.6,61.5,58.1,59,48,41,29.90,29.79,16,8,22,0.00
2013-7-8,92.5,85.5,79.7,61.1,57.5,55.4,50,39,29,29.92,29.86,13,6,23,0.00
2013-7-9,91.6,86.7,81.6,63.5,58.5,55.2,47,39,33,29.92,29.77,18,7,24,0.00
2013-7-17,81.0,79.3,77.7,58.1,57.1,55.9,50,47,43,29.91,29.89,8,5,22,0.00
2013-7-18,85.3,80.5,76.1,59.9,55.9,51.8,56,44,32,29.96,29.90,19,7,29,0.00
2013-7-19,86.8,81.5,77.0,56.6,53.8,49.0,48,39,31,29.96,29.84,16,7,24,0.00
2013-7-20,89.7,82.9,76.1,58.4,54.0,48.8,48,38,27,29.86,29.75,15,4,22,0.00
2013-7-21,92.6,85.7,78.6,57.1,54.9,50.6,44,35,27,29.82,29.75,14,5,22,0.00
2013-7-22,85.4,81.2,77.6,64.8,59.9,53.8,65,49,37,29.84,29.78,16,8,29,0.00
2013-7-23,87.5,81.2,75.0,60.7,53.7,44.0,56,41,23,29.84,29.78,15,6,23,0.00
2013-7-24,94.2,85.1,77.4,63.1,51.6,47.3,46,33,21,29.84,29.81,16,4,20,0.00
2013-7-27,92.6,86.5,79.6,71.4,60.7,53.3,68,44,28,29.83,29.78,9,3,21,0.00
2013-7-28,92.1,89.6,85.1,58.8,57.0,55.0,37,34,32,29.93,29.89,19,8,23,0.00
2013-7-29,94.4,88.1,81.2,58.5,54.6,49.4,46,33,22,29.94,29.86,16,6,24,0.00
2013-7-30,92.1,86.5,82.2,72.8,62.7,53.9,69,46,32,29.86,29.70,10,3,16,0.00
2013-7-31,96.4,88.2,81.6,69.0,63.6,59.7,58,45,34,29.70,29.67,10,3,16,0.00
2013-8-1,88.6,86.7,82.8,67.0,60.7,57.1,58,42,37,29.87,29.81,14,9,26,0.00
2013-8-2,89.0,84.5,80.1,62.0,58.8,53.7,53,43,32,29.89,29.85,18,7,25,0.00
2013-8-3,90.7,85.8,79.6,60.4,57.5,53.1,51,39,30,29.88,29.85,18,6,26,0.00
2013-8-4,95.5,88.4,81.4,60.4,55.8,50.0,44,34,22,29.88,29.83,16,5,26,0.00
2013-8-5,88.5,84.2,79.5,62.5,55.2,48.1,48,38,25,29.90,29.84,23,9,29,0.00
2013-8-6,84.2,81.4,80.3,56.7,54.3,51.9,44,40,33,29.87,29.82,21,8,29,0.00
2013-8-9,93.2,87.0,80.9,61.1,56.0,50.2,49,36,26,29.87,29.74,23,7,25,0.00
2013-8-10,89.5,83.1,77.9,73.5,63.8,52.5,80,54,34,29.75,29.58,9,3,14,0.00
2013-8-11,90.1,83.7,77.5,71.1,59.3,47.6,80,47,24,29.79,29.62,16,6,24,0.00
2013-8-12,90.8,85.5,79.5,61.7,55.6,51.7,50,37,27,29.86,29.79,14,6,24,0.00
2013-8-13,92.8,87.2,80.1,58.5,54.2,50.8,44,33,25,29.85,29.79,15,6,26,0.00
2013-8-14,94.0,87.0,81.3,59.1,53.5,47.7,44,33,22,29.81,29.74,16,4,26,0.00
2013-8-15,94.1,87.4,82.1,61.0,55.7,50.2,44,35,23,29.82,29.75,19,6,26,0.00
2013-8-16,88.5,84.6,79.1,66.8,63.6,59.0,65,50,42,29.82,29.77,15,8,28,0.00
2013-8-17,83.7,80.2,78.6,66.2,65.7,64.8,65,62,55,29.82,29.78,15,7,25,0.00
2013-8-20,94.2,90.2,84.0,58.8,51.9,48.7,36,28,22,29.81,29.76,18,8,22,0.00
2013-8-21,88.0,83.5,80.1,62.4,57.6,49.3,53,42,31,29.83,29.79,20,8,24,0.00
2013-8-22,86.2,80.7,76.8,63.4,60.0,56.0,58,50,38,29.82,29.76,11,5,21,0.00
2013-8-23,88.7,83.1,78.2,61.9,56.3,48.3,54,41,29,29.87,29.79,12,5,19,0.00
2013-8-24,83.3,80.8,77.0,69.2,58.8,47.9,63,48,31,29.89,29.82,11,3,16,0.00
2013-8-25,85.1,80.9,77.6,71.7,63.8,56.3,71,57,46,29.83,29.77,9,2,15,0.00
2013-8-26,86.4,81.8,78.0,73.6,64.2,58.1,71,56,43,29.84,29.77,7,2,14,0.00
2013-8-27,87.3,83.0,78.5,73.8,66.6,59.3,71,59,42,29.84,29.77,8,1,15,0.00
2013-8-28,90.2,85.3,80.0,72.6,67.4,61.7,67,56,44,29.81,29.75,13,2,17,0.00
2013-8-29,90.1,84.2,80.2,74.9,69.6,60.2,75,62,37,29.85,29.78,13,3,19,0.00
2013-8-30,89.7,84.2,80.3,72.8,65.2,57.3,77,54,35,29.87,29.78,9,2,16,0.00
2013-8-31,83.8,80.1,78.3,72.1,63.0,56.6,77,57,40,29.88,29.84,10,2,16,0.00
2013-9-3,84.3,78.8,74.7,68.1,64.4,60.3,69,62,50,30.03,29.92,13,2,18,0.00
2013-9-4,84.1,80.0,76.8,67.7,58.9,54.4,71,49,39,30.04,29.94,14,5,21,0.00
2013-9-5,80.1,76.7,72.5,58.1,54.6,50.5,56,47,39,30.05,29.92,12,2,18,0.00
2013-9-6,80.5,76.7,72.9,66.8,62.1,55.7,68,61,51,29.93,29.84,14,2,18,0.00
2013-9-7,78.9,77.0,74.9,68.3,66.2,62.4,74,70,63,29.96,29.87,5,1,9,0.00
2013-9-8,86.5,79.4,73.6,69.0,58.6,48.8,70,51,34,30.06,29.95,13,4,19,0.00
2013-9-9,84.7,78.8,72.8,56.6,51.9,46.7,55,40,29,30.09,30.02,18,4,20,0.00
2013-9-10,80.9,77.6,74.3,67.3,60.7,49.9,67,57,39,30.04,29.95,9,2,16,0.00
2013-9-11,83.4,79.0,74.2,72.8,67.5,63.3,78,68,60,29.97,29.89,12,3,13,0.00
2013-9-12,84.2,81.2,76.9,74.6,67.5,62.8,78,64,52,29.91,29.85,7,2,13,0.00
2013-9-13,84.3,80.6,76.7,73.4,68.8,64.3,77,68,53,29.90,29.84,11,3,17,0.00
2013-9-14,83.6,79.7,75.9,65.7,59.2,51.5,61,50,34,29.96,29.88,10,4,20,0.00
2013-9-15,75.5,75.3,75.2,62.6,62.3,62.0,65,64,63,29.86,29.86,6,5,12,0.00
2013-9-16,80.6,76.8,73.9,67.8,63.6,56.6,69,64,46,29.84,29.59,12,3,23,0.00
2013-9-17,80.1,76.3,72.1,68.0,63.7,60.9,75,65,53,29.67,29.59,14,4,18,0.00
2013-9-18,84.5,78.6,73.9,65.5,61.3,55.3,70,56,37,29.63,29.57,13,5,21,0.00
2013-9-19,82.1,77.1,72.9,66.4,61.9,56.0,69,60,49,29.70,29.61,11,2,15,0.00
2013-9-20,80.7,76.8,72.9,68.5,64.0,59.8,72,65,53,29.88,29.70,12,3,16,0.00
2013-9-21,80.0,75.4,72.5,64.6,61.1,58.8,74,62,51,29.98,29.88,10,3,16,0.00
2013-9-22,75.6,72.5,68.8,59.1,54.6,52.4,60,54,45,30.01,29.97,11,4,20,0.00
2013-9-23,77.7,71.5,66.2,55.1,51.2,48.0,64,49,38,30.00,29.87,11,2,21,0.00
2013-9-24,78.3,72.8,67.6,61.9,56.8,50.7,67,58,45,29.90,29.84,10,3,15,0.00
2013-9-25,78.4,74.3,69.0,67.5,63.3,59.1,80,69,60,29.96,29.89,11,2,15,0.00
2013-9-26,78.8,74.7,70.3,67.0,64.9,62.3,81,72,61,29.96,29.85,7,1,16,0.00
2013-9-27,81.9,76.4,71.5,66.6,63.0,58.4,73,64,45,29.87,29.80,10,2,18,0.00
2013-9-28,78.2,74.8,69.9,67.3,64.3,60.6,75,70,59,29.89,29.84,11,2,16,0.00
2013-9-29,79.2,75.7,72.2,70.1,64.9,60.3,82,70,59,29.89,29.81,10,3,15,0.00
2013-9-30,80.6,76.3,71.1,70.8,67.9,64.0,86,76,66,29.83,29.60,16,4,27,0.00
2013-10-1,78.2,73.6,67.6,71.5,65.7,60.8,90,77,57,29.61,29.49,21,4,27,0.00
2013-10-2,75.4,71.0,64.8,62.4,57.8,55.0,73,63,55,29.88,29.57,11,4,18,0.00
2013-10-3,64.5,61.8,60.1,56.3,51.1,46.0,84,69,57,30.20,29.89,12,5,21,0.00
2013-10-4,61.4,59.2,57.6,46.4,45.0,43.4,65,59,55,30.30,30.20,11,5,19,0.00
2013-10-5,64.3,59.3,55.7,44.9,43.4,41.6,62,56,46,30.30,30.21,11,5,21,0.00
2013-10-6,67.2,61.1,55.9,48.5,44.6,37.4,66,55,44,30.28,30.20,9,2,14,0.00
2013-10-7,71.9,63.8,58.1,49.9,47.4,43.8,69,56,38,30.29,30.22,7,3,17,0.00
2013-10-8,74.4,67.2,61.9,56.0,50.5,46.2,62,56,39,30.28,30.20,8,2,14,0.00
2013-10-9,73.6,67.8,61.6,58.7,53.3,47.0,70,60,39,30.22,30.10,7,2,11,0.00
2013-10-10,72.6,68.2,65.0,64.7,60.6,55.7,85,77,67,30.11,30.01,6,0,13,0.00
2013-10-11,77.1,71.4,65.0,69.2,63.4,59.3,85,77,62,30.14,30.04,8,1,11,0.00
2013-10-12,80.1,73.1,67.4,70.4,66.4,62.9,88,80,61,30.16,30.09,7,1,13,0.00
2013-10-13,78.0,72.2,68.2,68.4,65.7,60.2,90,81,64,30.12,30.07,5,1,10,0.00
2013-10-14,79.4,73.2,68.5,63.6,58.4,54.0,75,60,50,30.10,30.02,6,1,8,0.00
2013-10-15,75.3,71.5,67.3,66.7,62.2,57.5,83,73,64,30.09,29.92,8,1,12,0.00
2013-10-16,75.0,71.6,65.8,67.5,63.9,60.6,86,77,61,29.92,29.55,11,2,22,0.00
2013-10-17,72.7,68.3,64.0,66.1,55.5,44.2,80,65,44,29.70,29.47,15,5,29,0.01
2013-10-18,73.8,68.5,62.7,58.7,51.3,46.2,68,55,42,29.97,29.70,14,3,17,0.00
2013-10-19,75.8,69.3,65.1,56.1,47.4,42.9,69,46,31,30.28,29.97,12,2,15,0.00
2013-10-20,73.5,66.7,62.0,51.9,48.6,45.1,66,53,37,30.36,30.28,9,2,12,0.00
2013-10-21,71.4,65.3,59.2,57.0,50.6,44.5,75,60,47,30.29,30.15,5,1,10,0.00
2013-10-22,72.5,66.9,60.6,59.6,57.4,54.5,82,72,61,30.16,30.07,5,1,8,0.00
2013-10-23,80.0,70.8,62.7,57.4,53.4,46.8,77,55,42,30.15,30.09,17,4,21,0.00
2013-10-24,76.2,70.2,65.4,54.9,51.4,44.6,68,52,41,30.16,30.10,12,3,20,0.00
2013-10-25,75.7,67.4,62.4,54.1,48.7,45.4,60,52,38,30.13,30.06,6,2,12,0.00
2013-10-27,65.7,65.4,65.0,55.7,54.5,53.5,72,68,65,30.05,30.04,0,0,0,0.00
2013-10-28,65.2,62.5,60.1,56.9,54.1,50.3,76,74,70,30.04,30.02,4,0,5,0.00